| time (UTC) | temp F | wind direction | speed MPH | gust MPH | rain 1hr in | rain 24hr in | rain mn in | humidity % | barometer mb |
| 20260505194525 | 83 | 138 | 9.0 | 19.0 | 0.00 | 0.00 | 0.00 | 77 | 1007.4 |
| 20260505193024 | 83 | 167 | 8.0 | 19.0 | 0.00 | 0.00 | 0.00 | 77 | 1007.5 |
| 20260505191523 | 83 | 192 | 9.0 | 16.0 | 0.00 | 0.00 | 0.00 | 78 | 1007.7 |
| 20260505190019 | 82 | 236 | 7.0 | 16.0 | 0.00 | 0.00 | 0.00 | 80 | 1007.7 |
| 20260505184525 | 82 | 231 | 7.0 | 17.0 | 0.00 | 0.00 | 0.00 | 80 | 1007.8 |
| 20260505183021 | 81 | 161 | 8.0 | 21.0 | 0.00 | 0.00 | 0.00 | 82 | 1007.9 |
| 20260505181516 | 81 | 152 | 6.0 | 16.0 | 0.00 | 0.00 | 0.00 | 82 | 1008.1 |
| 20260505180014 | 81 | 201 | 5.0 | 16.0 | 0.00 | 0.00 | 0.00 | 81 | 1008.1 |
| 20260505174512 | 80 | 263 | 6.0 | 16.0 | 0.00 | 0.00 | 0.00 | 83 | 1008.3 |
| 20260505173010 | 79 | 221 | 7.0 | 13.0 | 0.00 | 0.00 | 0.00 | 83 | 1008.4 |
| 20260505171508 | 79 | 160 | 5.0 | 11.0 | 0.00 | 0.00 | 0.00 | 86 | 1008.4 |
| 20260505170010 | 78 | 94 | 5.0 | 15.0 | 0.00 | 0.00 | 0.00 | 85 | 1008.6 |
| 20260505164507 | 78 | 259 | 4.0 | 15.0 | 0.00 | 0.00 | 0.00 | 87 | 1008.6 |
| 20260505163004 | 78 | 205 | 9.0 | 17.0 | 0.00 | 0.00 | 0.00 | 87 | 1008.7 |
| 20260505161501 | 77 | 207 | 5.0 | 16.0 | 0.00 | 0.00 | 0.00 | 89 | 1008.7 |
| 20260505153056 | 75 | 175 | 4.0 | 12.0 | 0.00 | 0.00 | 0.00 | 90 | 1008.5 |
| 20260505151554 | 75 | 209 | 5.0 | 13.0 | 0.00 | 0.00 | 0.00 | 90 | 1008.3 |
| 20260505124536 | 71 | 183 | 5.0 | 11.0 | 0.00 | 0.00 | 0.00 | 96 | 1008.1 |
| 20260505123034 | 70 | 182 | 6.0 | 11.0 | 0.00 | 0.00 | 0.00 | 96 | 1007.9 |
| 20260505121633 | 70 | 163 | 5.0 | 12.0 | 0.00 | 0.00 | 0.00 | 96 | 1007.7 |
| 20260505120031 | 70 | 215 | 5.0 | 12.0 | 0.00 | 0.00 | 0.00 | 96 | 1007.8 |
| 20260505114529 | 70 | 159 | 3.0 | 10.0 | 0.00 | 0.00 | 0.00 | 96 | 1007.5 |
| 20260505113038 | 70 | 163 | 5.0 | 11.0 | 0.00 | 0.00 | 0.00 | 96 | 1007.6 |
| 20260505111539 | 69 | 181 | 3.0 | 10.0 | 0.00 | 0.00 | 0.00 | 96 | 1007.8 |
| 20260505101531 | 69 | 141 | 4.0 | 10.0 | 0.00 | 0.00 | 0.00 | 95 | 1007.8 |
| 20260505100021 | 69 | 165 | 3.0 | 10.0 | 0.00 | 0.00 | 0.00 | 95 | 1007.6 |
| 20260505094523 | 69 | 198 | 5.0 | 8.0 | 0.00 | 0.00 | 0.00 | 94 | 1007.7 |
| 20260505093018 | 68 | 171 | 4.0 | 8.0 | 0.00 | 0.00 | 0.00 | 94 | 1007.9 |
| 20260505091517 | 68 | 194 | 3.0 | 9.0 | 0.00 | 0.00 | 0.00 | 94 | 1007.8 |
| 20260505090017 | 68 | 153 | 3.0 | 7.0 | 0.00 | 0.00 | 0.00 | 94 | 1008.1 |
| 20260505084525 | 68 | 166 | 3.0 | 9.0 | 0.00 | 0.00 | 0.00 | 93 | 1008.2 |
| 20260505083012 | 69 | 187 | 3.0 | 7.0 | 0.00 | 0.00 | 0.00 | 93 | 1008.3 |
| 20260505081511 | 69 | 171 | 4.0 | 10.0 | 0.00 | 0.00 | 0.00 | 92 | 1008.4 |
| 20260505080021 | 69 | 178 | 4.0 | 9.0 | 0.00 | 0.00 | 0.00 | 92 | 1008.5 |
| 20260505074506 | 69 | 163 | 4.0 | 9.0 | 0.00 | 0.00 | 0.00 | 92 | 1008.7 |
| 20260505073006 | 69 | 170 | 5.0 | 9.0 | 0.00 | 0.00 | 0.00 | 91 | 1008.9 |
| 20260505071504 | 69 | 153 | 6.0 | 11.0 | 0.00 | 0.00 | 0.00 | 91 | 1008.9 |
| 20260505070002 | 69 | 189 | 4.0 | 10.0 | 0.00 | 0.00 | 0.00 | 90 | 1009.2 |
| 20260505064600 | 69 | 174 | 5.0 | 11.0 | 0.00 | 0.00 | 0.00 | 90 | 1009.2 |
| 20260505063059 | 69 | 170 | 7.0 | 12.0 | 0.00 | 0.00 | 0.00 | 89 | 1009.3 |
| 20260505061614 | 69 | 169 | 7.0 | 12.0 | 0.00 | 0.00 | 0.00 | 89 | 1009.2 |
| 20260505060059 | 69 | 169 | 7.0 | 13.0 | 0.00 | 0.00 | 0.00 | 88 | 1009.2 |
| 20260505054556 | 69 | 183 | 7.0 | 14.0 | 0.00 | 0.00 | 0.00 | 88 | 1009.4 |
| 20260505053051 | 70 | 173 | 7.0 | 17.0 | 0.00 | 0.00 | 0.00 | 87 | 1009.4 |
| 20260505051550 | 70 | 148 | 6.0 | 14.0 | 0.00 | 0.00 | 0.00 | 86 | 1009.7 |
| 20260505041548 | 71 | 162 | 8.0 | 15.0 | 0.00 | 0.00 | 0.00 | 83 | 1009.9 |
| 20260505040057 | 71 | 159 | 7.0 | 17.0 | 0.00 | 0.00 | 0.00 | 82 | 1009.9 |
| 20260505034544 | 71 | 240 | 7.0 | 15.0 | 0.00 | 0.00 | 0.00 | 81 | 1009.8 |
| 20260505033043 | 72 | 215 | 6.0 | 17.0 | 0.00 | 0.00 | 0.00 | 80 | 1009.9 |
| 20260505031550 | 72 | 169 | 7.0 | 19.0 | 0.00 | 0.00 | 0.00 | 80 | 1010.1 |
| 20260505030044 | 73 | 194 | 7.0 | 17.0 | 0.00 | 0.00 | 0.00 | 79 | 1010.0 |
| 20260505024541 | 73 | 157 | 7.0 | 14.0 | 0.00 | 0.00 | 0.00 | 78 | 1009.9 |
| 20260505023041 | 74 | 185 | 8.0 | 17.0 | 0.00 | 0.00 | 0.00 | 78 | 1009.6 |
| 20260505021540 | 74 | 179 | 7.0 | 20.0 | 0.00 | 0.00 | 0.00 | 77 | 1009.7 |
| 20260505020042 | 74 | 170 | 8.0 | 19.0 | 0.00 | 0.00 | 0.00 | 77 | 1009.5 |
| 20260505014541 | 74 | 162 | 10.0 | 19.0 | 0.00 | 0.00 | 0.00 | 77 | 1009.4 |
| 20260505013036 | 75 | 163 | 8.0 | 16.0 | 0.00 | 0.00 | 0.00 | 76 | 1009.4 |
| 20260505011538 | 75 | 161 | 7.0 | 13.0 | 0.00 | 0.00 | 0.00 | 76 | 1009.2 |
| 20260505010039 | 75 | 164 | 9.0 | 15.0 | 0.00 | 0.00 | 0.00 | 75 | 1009.1 |
| 20260505004534 | 75 | 141 | 8.0 | 16.0 | 0.00 | 0.00 | 0.00 | 74 | 1009.3 |
| 20260505003033 | 76 | 189 | 7.0 | 15.0 | 0.00 | 0.00 | 0.00 | 73 | 1009.3 |
| 20260505001533 | 76 | 173 | 7.0 | 15.0 | 0.00 | 0.00 | 0.00 | 73 | 1009.3 |
| 20260505000046 | 77 | 170 | 9.0 | 17.0 | 0.00 | 0.00 | 0.00 | 72 | 1009.4 |
| 20260504234533 | 77 | 165 | 8.0 | 17.0 | 0.00 | 0.00 | 0.00 | 71 | 1009.5 |
| 20260504233031 | 78 | 169 | 7.0 | 18.0 | 0.00 | 0.00 | 0.00 | 70 | 1009.4 |
| 20260504231529 | 78 | 185 | 7.0 | 15.0 | 0.00 | 0.00 | 0.00 | 68 | 1009.6 |
| 20260504230028 | 79 | 188 | 6.0 | 16.0 | 0.00 | 0.00 | 0.00 | 67 | 1009.7 |
| 20260504224527 | 79 | 163 | 9.0 | 16.0 | 0.00 | 0.00 | 0.00 | 66 | 1010.0 |
| 20260504223026 | 80 | 205 | 6.0 | 15.0 | 0.00 | 0.00 | 0.00 | 65 | 1009.8 |
| 20260504221527 | 79 | 161 | 5.0 | 15.0 | 0.00 | 0.00 | 0.00 | 65 | 1010.0 |
| 20260504220039 | 80 | 149 | 8.0 | 17.0 | 0.00 | 0.00 | 0.00 | 64 | 1010.2 |
| 20260504214521 | 80 | 150 | 6.0 | 13.0 | 0.00 | 0.00 | 0.00 | 64 | 1010.5 |
| 20260504213020 | 81 | 163 | 8.0 | 18.0 | 0.00 | 0.00 | 0.00 | 62 | 1010.5 |
| 20260504211519 | 80 | 206 | 5.0 | 14.0 | 0.00 | 0.00 | 0.00 | 64 | 1010.8 |
| 20260504210016 | 81 | 166 | 4.0 | 12.0 | 0.00 | 0.00 | 0.00 | 62 | 1011.1 |
| 20260504204521 | 80 | 183 | 7.0 | 12.0 | 0.00 | 0.00 | 0.00 | 64 | 1011.2 |
| 20260504203013 | 80 | 157 | 5.0 | 12.0 | 0.00 | 0.00 | 0.00 | 64 | 1011.6 |
| 20260504201512 | 80 | 198 | 5.0 | 15.0 | 0.00 | 0.00 | 0.00 | 62 | 1011.7 |
| 20260504200010 | 81 | 222 | 6.0 | 13.0 | 0.00 | 0.00 | 0.00 | 63 | 1012.2 |